SKYSAT-C9 (42989 NORAD) Tracking and Keplerian Element Data

This shows tracking and keplerian element data for the satellite.

Feedback or suggestion? Click here.




ElementValue
Catalog42989
NameSKYSAT-C9
Epoch Orbit5743
Epoch Day317.80795431
Epoch Year2018
RAAN69.7363
Inclination97.4176
Eccentricity0.0001388
Argument of Perigee77.0699
Mean Anonmoly48.3097
Mean Motion15.21579793
Decay Rate6.91E-06
L11 42989U 17068C 18317.80795431 .00000691 00000-0 33686-4 0 9997
L22 42989 97.4176 69.7363 0001388 77.0699 48.3097 15.21579793 57439

Live tracking and technical data element details for SKYSAT-C9 (NORAD 42989). SKYSAT-C9 can be tracked NOW for your location showing map with azimuth and elevation plus other details from your city location.

Track the satellite on the map from your city or location and see movement details for azimuth, elevation, latitude, longitude, range, height, and movement on the map or in text.







IsCatalogInMostPopularTable: catalog: 42989, numindb: 126
Update: records affected: 1



GetName: 42989 SKYSAT-C9

Hit Count: updated at: Wed, 14 Nov 2018 10:49:20 GMT